NSIGHT (42726 NORAD) Tracking and Keplerian Element Data

This shows tracking and keplerian element data for the satellite.

Feedback or suggestion? Click here.




ElementValue
Catalog42726
NameNSIGHT
Epoch Orbit10378
Epoch Day80.32096039
Epoch Year2019
RAAN44.6598
Inclination51.6381
Eccentricity0.0004574
Argument of Perigee176.3643
Mean Anonmoly183.7387
Mean Motion15.67747011
Decay Rate0.00018191
L11 42726U 98067MF 19080.32096039 .00018191 00000-0 16725-3 0 9995
L22 42726 51.6381 44.6598 0004574 176.3643 183.7387 15.67747011103788

Live tracking and technical data element details for NSIGHT (NORAD 42726). NSIGHT can be tracked NOW for your location showing map with azimuth and elevation plus other details from your city location.

Track the satellite on the map from your city or location and see movement details for azimuth, elevation, latitude, longitude, range, height, and movement on the map or in text.







IsCatalogInMostPopularTable: catalog: 42726, numindb: 208
Update: records affected: 1



GetName: 42726 NSIGHT

Hit Count: updated at: Sat, 23 Mar 2019 03:19:53 GMT